Weather History for KROX - December, 2012

Change the Weather History Date:

Thursday, December 13, 2012

  Actual Average Record
Temperature  
Mean Temperature 14 °F -  
Max Temperature 19 °F 17 °F 42 °F (2002)
Min Temperature 8 °F -1 °F -28 °F (1989)
Degree Days  
Heating Degree Days 52    
Moisture  
Dew Point 6 °F    
Average Humidity 79    
Maximum Humidity 85    
Minimum Humidity 73    
Precipitation  
Precipitation 0.00 in - - ()
Sea Level Pressure  
Sea Level Pressure 30.06 in    
Wind  
Wind Speed 4 mph (NNW)    
Max Wind Speed 8 mph    
Max Gust Speed -    
Visibility 7 miles    
Events Snow    
Averages and records for this station are not official NWS values.
T = Trace of Precipitation, MM = Missing Value Source: NWS Daily Summary

Daily Weather History Graph

Daily Weather History Graph

Search for Another Location

Airport or City:

Trip Planner

Search our weather history database for the weather conditions in past years. The results will help you decide how hot, cold, wet, or windy it might be!

Date:

Astronomy

Dec. 13, 2012 Rise Set
Actual Time 8:08 AM CST 4:26 PM CST
Civil Twilight 7:31 AM CST 5:03 PM CST
Nautical Twilight 6:50 AM CST 5:43 PM CST
Astronomical Twilight 6:12 AM CST 6:22 PM CST
Moon 8:16 AM CST (12/13) 5:11 PM CST (12/13)
Length of Visible Light 9h 31m
Length of Day
8h 17m
New Moon, 0% of the Moon is Illuminated
Dec 13
New Moon
Dec 19
First Quarter
Dec 28
Full
Jan 4
Last Quarter
Jan 11
New

Hourly Weather History & Observations

Time (CST) Temp. Windchill Dew Point Humidity Pressure Visibility Wind Dir Wind Speed Gust Speed Precip Events Conditions
12:10 AM 12.2 °F 1.7 °F 8.6 °F 85% - 10.0 mi NW 6.9 mph - N/A   Mostly Cloudy
12:34 AM 12.2 °F 2.9 °F 6.8 °F 79% 29.98 in 10.0 mi NW 5.8 mph - N/A Snow Light Snow
12:54 AM 12.2 °F 2.9 °F 6.8 °F 79% 29.98 in 10.0 mi NNW 5.8 mph - N/A   Mostly Cloudy
1:14 AM 12.2 °F 2.9 °F 6.8 °F 79% 29.98 in 10.0 mi NW 5.8 mph - N/A Snow Light Snow
1:35 AM 12.2 °F 2.9 °F 6.8 °F 79% 29.99 in 10.0 mi North 5.8 mph - N/A   Overcast
1:54 AM 10.4 °F 0.8 °F 6.8 °F 85% 29.99 in 5.0 mi NNW 5.8 mph - N/A Snow Light Snow
2:14 AM 10.4 °F 2.2 °F 6.8 °F 85% 30.00 in 10.0 mi NNW 4.6 mph - N/A   Mostly Cloudy
2:35 AM 10.4 °F 0.8 °F 6.8 °F 85% 30.01 in 10.0 mi NNW 5.8 mph - N/A   Scattered Clouds
2:54 AM 10.4 °F 0.8 °F 6.8 °F 85% 30.02 in 10.0 mi NW 5.8 mph - N/A Snow Light Snow
3:14 AM 10.4 °F 0.8 °F 6.8 °F 85% 30.03 in 10.0 mi NW 5.8 mph - N/A Snow Light Snow
3:35 AM 10.4 °F 0.8 °F 5.0 °F 79% 30.03 in 10.0 mi North 5.8 mph - N/A   Overcast
3:54 AM 10.4 °F 2.2 °F 5.0 °F 79% 30.03 in 10.0 mi North 4.6 mph - N/A Snow Light Snow
4:14 AM 10.4 °F -0.4 °F 5.0 °F 79% 30.04 in 10.0 mi North 6.9 mph - N/A   Overcast
4:35 AM 10.4 °F 0.8 °F 3.2 °F 73% 30.04 in 10.0 mi North 5.8 mph - N/A   Overcast
4:54 AM 10.4 °F 2.2 °F 3.2 °F 73% 30.04 in 10.0 mi North 4.6 mph - N/A   Overcast
5:14 AM 8.6 °F -1.3 °F 3.2 °F 79% 30.04 in 10.0 mi North 5.8 mph - N/A   Overcast
5:35 AM 8.6 °F 2.0 °F 3.2 °F 79% 30.05 in 10.0 mi North 3.5 mph - N/A Snow Light Snow
5:54 AM 8.6 °F 0.1 °F 3.2 °F 79% 30.05 in 10.0 mi North 4.6 mph - N/A   Overcast
6:14 AM 8.6 °F 0.1 °F 3.2 °F 79% 30.05 in 7.0 mi North 4.6 mph - N/A Snow Light Snow
6:35 AM 8.6 °F -1.3 °F 3.2 °F 79% 30.06 in 10.0 mi NNE 5.8 mph - N/A   Mostly Cloudy
6:54 AM 8.6 °F -1.3 °F 3.2 °F 79% 30.06 in 10.0 mi NNE 5.8 mph - N/A   Mostly Cloudy
7:15 AM 8.6 °F 0.1 °F 3.2 °F 79% 30.07 in 10.0 mi North 4.6 mph - N/A   Mostly Cloudy
7:34 AM 8.6 °F 0.1 °F 3.2 °F 79% 30.07 in 10.0 mi NNE 4.6 mph - N/A   Mostly Cloudy
7:54 AM 8.6 °F -1.3 °F 3.2 °F 79% 30.07 in 10.0 mi NNE 5.8 mph - N/A   Mostly Cloudy
8:15 AM 8.6 °F -1.3 °F 3.2 °F 79% 30.08 in 10.0 mi North 5.8 mph - N/A   Scattered Clouds
8:34 AM 8.6 °F 0.1 °F 3.2 °F 79% 30.09 in 10.0 mi North 4.6 mph - N/A   Scattered Clouds
8:54 AM 8.6 °F 0.1 °F 3.2 °F 79% 30.08 in 7.0 mi North 4.6 mph - N/A   Mostly Cloudy
9:15 AM 8.6 °F 2.0 °F 3.2 °F 79% 30.08 in 5.0 mi NNE 3.5 mph - N/A Snow Light Snow
9:34 AM 8.6 °F - 3.2 °F 79% 30.09 in 2.0 mi Calm Calm - N/A Snow Light Snow
9:54 AM 8.6 °F - 3.2 °F 79% 30.10 in 1.0 mi Calm Calm - N/A Snow Light Snow
10:15 AM 8.6 °F - 3.2 °F 79% 30.09 in 2.0 mi Calm Calm - N/A Snow Light Snow
10:34 AM 8.6 °F - 3.2 °F 79% 30.10 in 7.0 mi Calm Calm - N/A Snow Light Snow
10:54 AM 8.6 °F - 3.2 °F 79% 30.09 in 4.0 mi Calm Calm - N/A Snow Light Snow
11:15 AM 8.6 °F - 3.2 °F 79% 30.09 in 2.5 mi Calm Calm - N/A Snow Light Snow
11:34 AM 8.6 °F - 3.2 °F 79% 30.10 in 2.0 mi Calm Calm - N/A Snow Light Snow
11:54 AM 10.4 °F 2.2 °F 3.2 °F 73% 30.10 in 3.0 mi SW 4.6 mph - N/A Snow Light Snow
12:15 PM 10.4 °F - 3.2 °F 73% 30.09 in 3.0 mi Calm Calm - N/A Snow Light Snow
12:34 PM 10.4 °F 4.0 °F 3.2 °F 73% 30.09 in 3.0 mi South 3.5 mph - N/A Snow Light Snow
12:54 PM 10.4 °F - 5.0 °F 79% 30.08 in 1.8 mi Calm Calm - N/A Snow Light Snow
1:15 PM 10.4 °F - 5.0 °F 79% 30.08 in 1.0 mi Calm Calm - N/A Snow Light Snow
1:34 PM 12.2 °F - 6.8 °F 79% 30.08 in 2.0 mi Calm Calm - N/A Snow Light Snow
1:54 PM 12.2 °F - 6.8 °F 79% 30.08 in 4.0 mi Calm Calm - N/A Snow Light Snow
2:15 PM 12.2 °F - 6.8 °F 79% 30.07 in 2.0 mi Calm Calm - N/A Snow Light Snow
2:34 PM 12.2 °F - 6.8 °F 79% 30.07 in 4.0 mi Calm Calm - N/A Snow Light Snow
2:54 PM 12.2 °F - 6.8 °F 79% 30.07 in 4.0 mi Calm Calm - N/A Snow Light Snow
3:15 PM 12.2 °F 6.1 °F 6.8 °F 79% 30.07 in 1.8 mi SW 3.5 mph - N/A Snow Light Snow
3:34 PM 12.2 °F 6.1 °F 6.8 °F 79% 30.07 in 3.0 mi SW 3.5 mph - N/A Snow Light Snow
3:54 PM 12.2 °F - 6.8 °F 79% 30.07 in 2.5 mi Calm Calm - N/A Snow Light Snow
4:15 PM 12.2 °F - 8.6 °F 85% 30.08 in 0.8 mi Calm Calm - N/A Snow Light Snow
4:34 PM 12.2 °F - 8.6 °F 85% 30.06 in 1.0 mi Calm Calm - N/A Snow Light Snow
5:34 PM 12.2 °F - 8.6 °F 85% 30.07 in 10.0 mi Calm Calm - N/A   Mostly Cloudy
5:54 PM 12.2 °F - 8.6 °F 85% 30.07 in 10.0 mi Calm Calm - N/A   Scattered Clouds
7:14 PM 14.0 °F 8.2 °F 8.6 °F 79% 30.06 in 10.0 mi SE 3.5 mph - N/A   Mostly Cloudy
7:34 PM 14.0 °F 8.2 °F 8.6 °F 79% 30.06 in 10.0 mi ESE 3.5 mph - N/A   Mostly Cloudy
7:54 PM 15.8 °F - 8.6 °F 73% 30.06 in 10.0 mi Calm Calm - N/A   Mostly Cloudy
8:14 PM 15.8 °F 8.6 °F 10.4 °F 79% 30.06 in 10.0 mi SE 4.6 mph - N/A   Overcast
8:34 PM 15.8 °F 6.1 °F 10.4 °F 79% 30.05 in 10.0 mi SSE 6.9 mph - N/A   Overcast
8:54 PM 15.8 °F 8.6 °F 10.4 °F 79% 30.05 in 10.0 mi SSE 4.6 mph - N/A   Overcast
9:14 PM 17.6 °F 9.3 °F 10.4 °F 73% 30.06 in 10.0 mi South 5.8 mph - N/A   Overcast
9:34 PM 17.6 °F 10.7 °F 10.4 °F 73% 30.06 in 10.0 mi South 4.6 mph - N/A   Overcast
9:54 PM 17.6 °F 8.2 °F 12.2 °F 79% 30.06 in 10.0 mi South 6.9 mph - N/A   Overcast
10:14 PM 17.6 °F 8.2 °F 12.2 °F 79% 30.06 in 10.0 mi South 6.9 mph - N/A   Overcast
10:34 PM 17.6 °F 8.2 °F 12.2 °F 79% 30.05 in 10.0 mi South 6.9 mph - N/A   Overcast
10:54 PM 17.6 °F 8.2 °F 12.2 °F 79% 30.06 in 10.0 mi South 6.9 mph - N/A   Mostly Cloudy
11:14 PM 19.4 °F 10.4 °F 12.2 °F 74% 30.06 in 10.0 mi South 6.9 mph - N/A   Overcast
11:34 PM 19.4 °F 9.5 °F 12.2 °F 74% 30.06 in 10.0 mi SSW 8.1 mph - N/A   Overcast
11:54 PM 19.4 °F 11.5 °F 12.2 °F 74% 30.06 in 10.0 mi SSW 5.8 mph - N/A   Overcast